| time (UTC) | temp F | wind direction | speed MPH | gust MPH | rain 1hr in | rain 24hr in | rain mn in | humidity % | barometer mb |
| 20260904081252 | 52 | 267 | 0.0 | 0.0 | 0.00 | 0.10 | 0.00 | 93 | 1012.2 |
| 20260904080752 | 52 | 267 | 0.0 | 0.0 | 0.00 | 0.10 | 0.00 | 92 | 1012.1 |
| 20260904080252 | 52 | 267 | 0.0 | 0.0 | 0.00 | 0.10 | 0.00 | 92 | 1012.0 |
| 20260904075751 | 52 | 267 | 0.0 | 0.0 | 0.00 | 0.10 | 0.00 | 92 | 1012.0 |
| 20260904075252 | 52 | 267 | 0.0 | 0.0 | 0.00 | 0.10 | 0.00 | 92 | 1012.1 |
| 20260904074751 | 52 | 266 | 0.0 | 0.0 | 0.00 | 0.10 | 0.00 | 91 | 1012.1 |
| 20260904074251 | 53 | 267 | 0.0 | 1.0 | 0.00 | 0.10 | 0.00 | 91 | 1012.1 |
| 20260904073751 | 53 | 267 | 0.0 | 2.0 | 0.00 | 0.10 | 0.00 | 91 | 1012.0 |
| 20260904073251 | 53 | 267 | 0.0 | 2.0 | 0.00 | 0.10 | 0.00 | 91 | 1012.0 |
| 20260904071750 | 53 | 257 | 1.0 | 3.0 | 0.00 | 0.10 | 0.00 | 90 | 1011.9 |
| 20260904071251 | 53 | 257 | 2.0 | 3.0 | 0.00 | 0.10 | 0.00 | 91 | 1011.9 |
| 20260904070750 | 53 | 257 | 0.0 | 2.0 | 0.00 | 0.10 | 0.00 | 90 | 1012.0 |
| 20260904070251 | 53 | 98 | 0.0 | 1.0 | 0.00 | 0.10 | 0.00 | 91 | 1011.9 |
| 20260904065750 | 53 | 98 | 0.0 | 1.0 | 0.00 | 0.10 | 0.10 | 91 | 1011.9 |
| 20260904064750 | 54 | 98 | 0.0 | 3.0 | 0.00 | 0.10 | 0.10 | 89 | 1011.8 |
| 20260904064250 | 54 | 98 | 0.0 | 3.0 | 0.00 | 0.10 | 0.10 | 89 | 1011.8 |
| 20260904063750 | 54 | 270 | 1.0 | 3.0 | 0.00 | 0.10 | 0.10 | 88 | 1011.7 |
| 20260904063250 | 54 | 270 | 0.0 | 3.0 | 0.00 | 0.10 | 0.10 | 88 | 1011.7 |
| 20260904062750 | 55 | 259 | 0.0 | 4.0 | 0.00 | 0.10 | 0.10 | 88 | 1011.6 |
| 20260904062249 | 55 | 272 | 2.0 | 4.0 | 0.00 | 0.10 | 0.10 | 88 | 1011.5 |
| 20260904061750 | 55 | 267 | 2.0 | 3.0 | 0.00 | 0.10 | 0.10 | 87 | 1011.5 |
| 20260904061249 | 55 | 253 | 2.0 | 3.0 | 0.00 | 0.10 | 0.10 | 87 | 1011.5 |
| 20260904060749 | 55 | 266 | 2.0 | 3.0 | 0.00 | 0.10 | 0.10 | 87 | 1011.5 |
| 20260904055749 | 55 | 257 | 1.0 | 3.0 | 0.00 | 0.10 | 0.10 | 88 | 1011.5 |
| 20260904055249 | 55 | 254 | 2.0 | 3.0 | 0.00 | 0.10 | 0.10 | 88 | 1011.4 |
| 20260904054749 | 55 | 266 | 2.0 | 4.0 | 0.00 | 0.10 | 0.10 | 88 | 1011.4 |
| 20260904054249 | 55 | 255 | 2.0 | 4.0 | 0.00 | 0.10 | 0.10 | 88 | 1011.4 |
| 20260904053749 | 55 | 234 | 1.0 | 4.0 | 0.00 | 0.10 | 0.10 | 88 | 1011.5 |
| 20260904053249 | 55 | 250 | 4.0 | 4.0 | 0.00 | 0.10 | 0.10 | 88 | 1011.4 |
| 20260904052749 | 55 | 251 | 3.0 | 5.0 | 0.00 | 0.10 | 0.10 | 87 | 1011.4 |
| 20260904051749 | 55 | 288 | 5.0 | 6.0 | 0.00 | 0.10 | 0.10 | 87 | 1011.5 |
| 20260904050748 | 55 | 264 | 2.0 | 5.0 | 0.00 | 0.10 | 0.10 | 88 | 1011.5 |
| 20260904050248 | 55 | 257 | 3.0 | 5.0 | 0.00 | 0.10 | 0.10 | 88 | 1011.5 |
| 20260904045748 | 55 | 264 | 4.0 | 6.0 | 0.00 | 0.10 | 0.10 | 88 | 1011.5 |
| 20260904045248 | 55 | 259 | 2.0 | 6.0 | 0.00 | 0.10 | 0.10 | 88 | 1011.5 |
| 20260904044747 | 55 | 250 | 4.0 | 6.0 | 0.00 | 0.10 | 0.10 | 88 | 1011.5 |
| 20260904044247 | 55 | 255 | 2.0 | 6.0 | 0.00 | 0.10 | 0.10 | 88 | 1011.5 |
| 20260904043747 | 55 | 260 | 3.0 | 6.0 | 0.00 | 0.10 | 0.10 | 88 | 1011.6 |
| 20260904043247 | 55 | 258 | 3.0 | 4.0 | 0.00 | 0.10 | 0.10 | 88 | 1011.5 |
| 20260904042747 | 55 | 257 | 2.0 | 4.0 | 0.00 | 0.10 | 0.10 | 88 | 1011.6 |
| 20260904041247 | 55 | 255 | 3.0 | 4.0 | 0.00 | 0.10 | 0.10 | 88 | 1011.5 |
| 20260904035747 | 55 | 277 | 3.0 | 6.0 | 0.00 | 0.10 | 0.10 | 88 | 1011.4 |
| 20260904034746 | 55 | 269 | 2.0 | 7.0 | 0.00 | 0.10 | 0.10 | 88 | 1011.3 |
| 20260904034246 | 55 | 292 | 5.0 | 7.0 | 0.00 | 0.10 | 0.10 | 88 | 1011.2 |
| 20260904033746 | 55 | 273 | 3.0 | 6.0 | 0.00 | 0.10 | 0.10 | 87 | 1011.2 |
| 20260904032746 | 55 | 276 | 2.0 | 6.0 | 0.00 | 0.10 | 0.10 | 87 | 1011.1 |
| 20260904032245 | 55 | 304 | 5.0 | 5.0 | 0.00 | 0.10 | 0.10 | 87 | 1011.1 |
| 20260904030745 | 56 | 275 | 4.0 | 5.0 | 0.00 | 0.10 | 0.10 | 86 | 1010.9 |
| 20260904030245 | 56 | 261 | 1.0 | 5.0 | 0.00 | 0.10 | 0.10 | 86 | 1011.0 |
| 20260904025745 | 56 | 281 | 3.0 | 6.0 | 0.00 | 0.10 | 0.10 | 86 | 1010.9 |
| 20260904024745 | 58 | 281 | 2.0 | 5.0 | 0.00 | 0.10 | 0.10 | 83 | 1010.8 |
| 20260904024245 | 59 | 257 | 2.0 | 3.0 | 0.00 | 0.10 | 0.10 | 81 | 1010.6 |
| 20260904023744 | 59 | 115 | 0.0 | 1.0 | 0.00 | 0.10 | 0.10 | 78 | 1010.5 |
| 20260904023245 | 59 | 115 | 0.0 | 2.0 | 0.00 | 0.10 | 0.10 | 78 | 1010.5 |
| 20260904022745 | 60 | 115 | 0.0 | 3.0 | 0.00 | 0.10 | 0.10 | 77 | 1010.5 |
| 20260904022244 | 60 | 115 | 0.0 | 3.0 | 0.00 | 0.10 | 0.10 | 77 | 1010.5 |
| 20260904021744 | 60 | 121 | 2.0 | 4.0 | 0.00 | 0.10 | 0.10 | 77 | 1010.4 |
| 20260904021244 | 60 | 116 | 1.0 | 4.0 | 0.00 | 0.10 | 0.10 | 76 | 1010.4 |
| 20260904020744 | 61 | 117 | 1.0 | 3.0 | 0.00 | 0.10 | 0.10 | 76 | 1010.5 |
| 20260904020244 | 61 | 72 | 0.0 | 2.0 | 0.00 | 0.10 | 0.10 | 75 | 1010.5 |
| 20260904015744 | 61 | 110 | 1.0 | 2.0 | 0.00 | 0.10 | 0.10 | 76 | 1010.5 |
| 20260904015244 | 61 | 12 | 0.0 | 2.0 | 0.00 | 0.10 | 0.10 | 76 | 1010.5 |
| 20260904014744 | 61 | 352 | 1.0 | 3.0 | 0.00 | 0.10 | 0.10 | 76 | 1010.5 |
| 20260904013743 | 61 | 339 | 0.0 | 2.0 | 0.00 | 0.10 | 0.10 | 76 | 1010.6 |
| 20260904013244 | 61 | 339 | 1.0 | 2.0 | 0.00 | 0.10 | 0.10 | 76 | 1010.5 |
| 20260904012743 | 61 | 339 | 0.0 | 2.0 | 0.00 | 0.10 | 0.10 | 76 | 1010.6 |
| 20260904011743 | 62 | 106 | 0.0 | 3.0 | 0.00 | 0.10 | 0.10 | 76 | 1010.5 |
| 20260904011243 | 62 | 328 | 2.0 | 3.0 | 0.00 | 0.10 | 0.10 | 74 | 1010.5 |
| 20260904010243 | 61 | 21 | 2.0 | 4.0 | 0.00 | 0.10 | 0.10 | 75 | 1010.4 |
| 20260904005742 | 61 | 21 | 2.0 | 4.0 | 0.00 | 0.10 | 0.10 | 75 | 1010.3 |
| 20260904004743 | 61 | 21 | 2.0 | 4.0 | 0.00 | 0.10 | 0.10 | 75 | 1010.3 |
| 20260904004243 | 61 | 17 | 2.0 | 4.0 | 0.00 | 0.10 | 0.10 | 75 | 1010.3 |
| 20260904003742 | 61 | 133 | 1.0 | 3.0 | 0.00 | 0.10 | 0.10 | 74 | 1010.3 |
| 20260904003242 | 62 | 102 | 1.0 | 3.0 | 0.00 | 0.10 | 0.10 | 74 | 1010.3 |
| 20260904002742 | 61 | 34 | 0.0 | 3.0 | 0.00 | 0.10 | 0.10 | 75 | 1010.3 |
| 20260904002242 | 62 | 30 | 1.0 | 4.0 | 0.00 | 0.10 | 0.10 | 75 | 1010.4 |
| 20260904001741 | 62 | 93 | 1.0 | 4.0 | 0.00 | 0.10 | 0.10 | 76 | 1010.4 |
| 20260904001242 | 62 | 297 | 1.0 | 2.0 | 0.00 | 0.10 | 0.10 | 75 | 1010.4 |
| 20260904000741 | 62 | 297 | 2.0 | 3.0 | 0.00 | 0.10 | 0.10 | 75 | 1010.5 |
| 20260904000241 | 62 | 297 | 1.0 | 3.0 | 0.00 | 0.10 | 0.10 | 75 | 1010.4 |
| 20260903235741 | 61 | 297 | 1.0 | 2.0 | 0.00 | 0.10 | 0.10 | 76 | 1010.4 |
| 20260903235241 | 61 | 297 | 1.0 | 2.0 | 0.00 | 0.10 | 0.10 | 76 | 1010.3 |
| 20260903234741 | 61 | 297 | 0.0 | 2.0 | 0.00 | 0.10 | 0.10 | 77 | 1010.4 |
| 20260903234241 | 61 | 297 | 1.0 | 2.0 | 0.00 | 0.10 | 0.10 | 77 | 1010.4 |
| 20260903233741 | 61 | 297 | 0.0 | 2.0 | 0.00 | 0.10 | 0.10 | 78 | 1010.5 |
| 20260903233241 | 61 | 297 | 1.0 | 3.0 | 0.00 | 0.10 | 0.10 | 78 | 1010.4 |
| 20260903232741 | 61 | 297 | 1.0 | 3.0 | 0.00 | 0.10 | 0.10 | 78 | 1010.4 |
| 20260903232241 | 61 | 297 | 1.0 | 3.0 | 0.00 | 0.10 | 0.10 | 79 | 1010.4 |
| 20260903231740 | 61 | 297 | 1.0 | 3.0 | 0.00 | 0.10 | 0.10 | 80 | 1010.4 |
| 20260903231241 | 61 | 79 | 0.0 | 3.0 | 0.00 | 0.10 | 0.10 | 79 | 1010.5 |
| 20260903230240 | 61 | 319 | 1.0 | 3.0 | 0.00 | 0.10 | 0.10 | 78 | 1010.6 |
| 20260903225741 | 61 | 31 | 1.0 | 3.0 | 0.00 | 0.10 | 0.10 | 78 | 1010.7 |
| 20260903225240 | 62 | 31 | 3.0 | 3.0 | 0.00 | 0.10 | 0.10 | 77 | 1010.6 |
| 20260903224740 | 62 | 128 | 0.0 | 2.0 | 0.00 | 0.10 | 0.10 | 77 | 1010.7 |
| 20260903223740 | 61 | 32 | 0.0 | 4.0 | 0.00 | 0.10 | 0.10 | 77 | 1010.8 |
| 20260903222739 | 61 | 27 | 1.0 | 5.0 | 0.00 | 0.10 | 0.10 | 76 | 1010.8 |
| 20260903221740 | 62 | 84 | 0.0 | 6.0 | 0.00 | 0.10 | 0.10 | 75 | 1010.8 |
| 20260903221239 | 62 | 102 | 2.0 | 6.0 | 0.00 | 0.10 | 0.10 | 75 | 1010.8 |
| 20260903220239 | 62 | 105 | 2.0 | 8.0 | 0.00 | 0.10 | 0.10 | 76 | 1010.8 |
| 20260903215739 | 62 | 155 | 1.0 | 7.0 | 0.00 | 0.10 | 0.10 | 76 | 1010.8 |
| 20260903214239 | 61 | 134 | 1.0 | 7.0 | 0.00 | 0.11 | 0.10 | 78 | 1010.8 |
| 20260903213739 | 61 | 110 | 2.0 | 7.0 | 0.00 | 0.11 | 0.10 | 77 | 1010.7 |
| 20260903213238 | 61 | 108 | 4.0 | 8.0 | 0.00 | 0.11 | 0.10 | 77 | 1010.7 |
| 20260903212738 | 61 | 89 | 5.0 | 8.0 | 0.00 | 0.11 | 0.10 | 76 | 1010.7 |
| 20260903212239 | 62 | 117 | 5.0 | 8.0 | 0.00 | 0.11 | 0.10 | 76 | 1010.7 |
| 20260903211738 | 61 | 115 | 3.0 | 10.0 | 0.00 | 0.11 | 0.10 | 76 | 1010.6 |
| 20260903211238 | 61 | 116 | 4.0 | 11.0 | 0.00 | 0.11 | 0.10 | 76 | 1010.7 |
| 20260903210237 | 62 | 125 | 4.0 | 12.0 | 0.00 | 0.11 | 0.10 | 76 | 1010.5 |
| 20260903205738 | 61 | 122 | 7.0 | 12.0 | 0.00 | 0.11 | 0.10 | 76 | 1010.5 |
| 20260903205237 | 61 | 103 | 6.0 | 13.0 | 0.00 | 0.11 | 0.10 | 76 | 1010.4 |
| 20260903204738 | 62 | 104 | 6.0 | 13.0 | 0.00 | 0.11 | 0.10 | 76 | 1010.4 |
| 20260903204237 | 62 | 112 | 10.0 | 14.0 | 0.00 | 0.11 | 0.10 | 75 | 1010.3 |
| 20260903203737 | 62 | 109 | 6.0 | 14.0 | 0.00 | 0.11 | 0.10 | 74 | 1010.3 |
| 20260903202737 | 62 | 65 | 8.0 | 15.0 | 0.00 | 0.11 | 0.10 | 75 | 1010.3 |
| 20260903202237 | 62 | 114 | 8.0 | 13.0 | 0.00 | 0.11 | 0.10 | 75 | 1010.2 |
| 20260903201737 | 62 | 133 | 7.0 | 13.0 | 0.00 | 0.11 | 0.10 | 76 | 1010.2 |
| 20260903200736 | 62 | 134 | 6.0 | 18.0 | 0.00 | 0.11 | 0.10 | 76 | 1010.2 |
| 20260903195737 | 62 | 89 | 8.0 | 14.0 | 0.00 | 0.11 | 0.10 | 75 | 1010.1 |
| 20260903195237 | 63 | 150 | 5.0 | 14.0 | 0.00 | 0.11 | 0.10 | 74 | 1010.0 |
| 20260903194737 | 63 | 94 | 6.0 | 16.0 | 0.00 | 0.11 | 0.10 | 73 | 1010.1 |
| 20260903194236 | 62 | 130 | 5.0 | 16.0 | 0.00 | 0.11 | 0.10 | 77 | 1010.0 |
| 20260903193736 | 62 | 101 | 8.0 | 15.0 | 0.00 | 0.11 | 0.10 | 77 | 1010.0 |
| 20260903192235 | 63 | 108 | 8.0 | 12.0 | 0.00 | 0.11 | 0.10 | 76 | 1010.0 |
| 20260903191236 | 62 | 121 | 4.0 | 13.0 | 0.00 | 0.11 | 0.10 | 75 | 1009.9 |
| 20260903185235 | 62 | 97 | 3.0 | 14.0 | 0.00 | 0.11 | 0.10 | 76 | 1009.8 |
| 20260903184235 | 62 | 82 | 3.0 | 17.0 | 0.00 | 0.11 | 0.10 | 76 | 1009.7 |
| 20260903183735 | 61 | 95 | 8.0 | 15.0 | 0.00 | 0.11 | 0.10 | 77 | 1009.7 |
| 20260903183235 | 61 | 115 | 8.0 | 15.0 | 0.00 | 0.11 | 0.10 | 77 | 1009.5 |
| 20260903182734 | 61 | 118 | 10.0 | 15.0 | 0.00 | 0.11 | 0.10 | 78 | 1009.5 |
| 20260903181235 | 61 | 117 | 11.0 | 16.0 | 0.00 | 0.11 | 0.10 | 81 | 1009.4 |
| 20260903180305 | 61 | 120 | 11.0 | 16.0 | 0.00 | 0.11 | 0.10 | 81 | 1009.5 |
| 20260903175734 | 61 | 139 | 2.0 | 17.0 | 0.00 | 0.11 | 0.10 | 81 | 1009.5 |
| 20260903175234 | 60 | 104 | 10.0 | 18.0 | 0.00 | 0.11 | 0.10 | 82 | 1009.4 |
| 20260903174734 | 60 | 121 | 11.0 | 18.0 | 0.00 | 0.11 | 0.10 | 82 | 1009.4 |
| 20260903173734 | 60 | 93 | 7.0 | 18.0 | 0.00 | 0.11 | 0.10 | 82 | 1009.2 |
| 20260903172733 | 60 | 150 | 17.0 | 17.0 | 0.00 | 0.11 | 0.10 | 82 | 1009.1 |
| 20260903172234 | 60 | 103 | 9.0 | 17.0 | 0.00 | 0.11 | 0.10 | 82 | 1009.1 |
| 20260903171233 | 59 | 103 | 8.0 | 16.0 | 0.00 | 0.11 | 0.10 | 84 | 1009.0 |
| 20260903170734 | 59 | 90 | 9.0 | 19.0 | 0.00 | 0.11 | 0.10 | 85 | 1008.9 |
| 20260903170303 | 59 | 119 | 11.0 | 19.0 | 0.00 | 0.11 | 0.10 | 85 | 1008.9 |
| 20260903165733 | 59 | 98 | 8.0 | 17.0 | 0.00 | 0.11 | 0.10 | 85 | 1008.9 |
| 20260903165233 | 59 | 92 | 9.0 | 14.0 | 0.00 | 0.11 | 0.10 | 86 | 1008.8 |
| 20260903164733 | 59 | 145 | 7.0 | 15.0 | 0.00 | 0.11 | 0.10 | 85 | 1008.8 |
| 20260903164233 | 58 | 131 | 13.0 | 15.0 | 0.00 | 0.11 | 0.10 | 86 | 1008.8 |
| 20260903161733 | 58 | 148 | 5.0 | 16.0 | 0.00 | 0.11 | 0.10 | 88 | 1008.8 |
| 20260903161233 | 57 | 98 | 8.0 | 16.0 | 0.00 | 0.11 | 0.10 | 88 | 1008.7 |
| 20260903160732 | 57 | 141 | 9.0 | 16.0 | 0.00 | 0.11 | 0.10 | 88 | 1008.7 |
| 20260903160232 | 57 | 100 | 5.0 | 16.0 | 0.00 | 0.11 | 0.10 | 89 | 1008.6 |
| 20260903155732 | 57 | 129 | 12.0 | 16.0 | 0.00 | 0.11 | 0.10 | 89 | 1008.6 |
| 20260903155232 | 57 | 125 | 10.0 | 13.0 | 0.00 | 0.11 | 0.10 | 90 | 1008.7 |
| 20260903154732 | 56 | 141 | 7.0 | 13.0 | 0.00 | 0.11 | 0.10 | 90 | 1008.7 |
| 20260903153731 | 56 | 118 | 9.0 | 14.0 | 0.00 | 0.11 | 0.10 | 91 | 1008.8 |
| 20260903152731 | 55 | 115 | 8.0 | 14.0 | 0.00 | 0.11 | 0.10 | 91 | 1008.8 |
| 20260903152231 | 55 | 130 | 7.0 | 14.0 | 0.00 | 0.11 | 0.10 | 91 | 1008.7 |
| 20260903151801 | 55 | 128 | 3.0 | 14.0 | 0.00 | 0.11 | 0.10 | 91 | 1008.8 |
| 20260903150731 | 55 | 125 | 6.0 | 14.0 | 0.00 | 0.11 | 0.10 | 91 | 1008.8 |
| 20260903150300 | 55 | 134 | 8.0 | 13.0 | 0.00 | 0.11 | 0.10 | 92 | 1008.8 |
| 20260903145801 | 55 | 143 | 9.0 | 14.0 | 0.00 | 0.11 | 0.10 | 92 | 1008.8 |
| 20260903145231 | 55 | 110 | 8.0 | 15.0 | 0.00 | 0.11 | 0.10 | 91 | 1008.8 |
| 20260903144801 | 55 | 79 | 2.0 | 15.0 | 0.00 | 0.11 | 0.10 | 91 | 1008.7 |
| 20260903144300 | 55 | 96 | 5.0 | 14.0 | 0.00 | 0.11 | 0.10 | 91 | 1008.7 |
| 20260903143800 | 55 | 98 | 4.0 | 12.0 | 0.00 | 0.11 | 0.10 | 91 | 1008.6 |
| 20260903143300 | 55 | 135 | 6.0 | 14.0 | 0.00 | 0.11 | 0.10 | 91 | 1008.6 |
| 20260903142800 | 55 | 147 | 4.0 | 14.0 | 0.00 | 0.11 | 0.10 | 91 | 1008.5 |
| 20260903141800 | 55 | 120 | 4.0 | 12.0 | 0.00 | 0.11 | 0.10 | 91 | 1008.5 |
| 20260903140800 | 55 | 136 | 10.0 | 18.0 | 0.00 | 0.11 | 0.10 | 91 | 1008.3 |
| 20260903140259 | 55 | 142 | 4.0 | 18.0 | 0.00 | 0.11 | 0.10 | 91 | 1008.3 |
| 20260903135759 | 55 | 144 | 6.0 | 14.0 | 0.00 | 0.11 | 0.10 | 91 | 1008.2 |
| 20260903135259 | 55 | 117 | 5.0 | 16.0 | 0.00 | 0.11 | 0.10 | 91 | 1008.2 |
| 20260903134759 | 55 | 147 | 7.0 | 16.0 | 0.00 | 0.11 | 0.10 | 91 | 1008.2 |
| 20260903134258 | 54 | 117 | 3.0 | 15.0 | 0.00 | 0.11 | 0.10 | 91 | 1008.0 |
| 20260903133759 | 54 | 167 | 7.0 | 15.0 | 0.00 | 0.11 | 0.10 | 92 | 1008.0 |
| 20260903132258 | 54 | 136 | 4.0 | 13.0 | 0.01 | 0.11 | 0.10 | 93 | 1008.0 |
| 20260903131258 | 54 | 124 | 9.0 | 13.0 | 0.03 | 0.11 | 0.10 | 93 | 1008.0 |
| 20260903130758 | 54 | 138 | 5.0 | 14.0 | 0.04 | 0.11 | 0.10 | 93 | 1007.8 |
| 20260903125758 | 54 | 133 | 4.0 | 16.0 | 0.05 | 0.11 | 0.10 | 93 | 1007.8 |
| 20260903125258 | 54 | 122 | 12.0 | 16.0 | 0.06 | 0.11 | 0.10 | 93 | 1007.7 |
| 20260903124757 | 54 | 155 | 9.0 | 17.0 | 0.06 | 0.11 | 0.10 | 93 | 1007.7 |
| 20260903124257 | 54 | 134 | 10.0 | 17.0 | 0.07 | 0.11 | 0.10 | 94 | 1007.7 |
| 20260903123758 | 54 | 188 | 8.0 | 15.0 | 0.08 | 0.11 | 0.10 | 94 | 1007.7 |
| 20260903123257 | 54 | 98 | 4.0 | 18.0 | 0.07 | 0.10 | 0.09 | 94 | 1007.7 |
| 20260903122257 | 54 | 158 | 10.0 | 17.0 | 0.09 | 0.10 | 0.09 | 93 | 1007.5 |
| 20260903121757 | 54 | 105 | 12.0 | 17.0 | 0.08 | 0.09 | 0.08 | 93 | 1007.5 |
| 20260903121257 | 55 | 136 | 8.0 | 17.0 | 0.07 | 0.08 | 0.07 | 93 | 1007.6 |
| 20260903120757 | 55 | 98 | 8.0 | 14.0 | 0.06 | 0.07 | 0.06 | 93 | 1007.5 |
| 20260903120256 | 55 | 165 | 7.0 | 14.0 | 0.05 | 0.06 | 0.05 | 93 | 1007.5 |
| 20260903115256 | 55 | 153 | 4.0 | 17.0 | 0.04 | 0.05 | 0.04 | 92 | 1007.4 |
| 20260903114756 | 55 | 86 | 5.0 | 17.0 | 0.04 | 0.05 | 0.04 | 92 | 1007.3 |
| 20260903114256 | 55 | 122 | 5.0 | 17.0 | 0.03 | 0.04 | 0.03 | 92 | 1007.3 |
| 20260903113756 | 55 | 84 | 5.0 | 18.0 | 0.02 | 0.03 | 0.02 | 91 | 1007.2 |
| 20260903113256 | 55 | 134 | 12.0 | 20.0 | 0.02 | 0.03 | 0.02 | 91 | 1007.2 |
| 20260903112756 | 55 | 124 | 6.0 | 21.0 | 0.01 | 0.02 | 0.01 | 90 | 1007.1 |
| 20260903112255 | 56 | 172 | 9.0 | 21.0 | 0.00 | 0.01 | 0.00 | 89 | 1007.1 |
| 20260903111755 | 56 | 155 | 14.0 | 19.0 | 0.00 | 0.01 | 0.00 | 88 | 1007.1 |
| 20260903111255 | 56 | 115 | 9.0 | 19.0 | 0.00 | 0.01 | 0.00 | 88 | 1006.9 |
| 20260903110756 | 56 | 89 | 8.0 | 15.0 | 0.00 | 0.01 | 0.00 | 88 | 1006.9 |
| 20260903110255 | 56 | 98 | 14.0 | 15.0 | 0.00 | 0.01 | 0.00 | 88 | 1006.9 |
| 20260903105755 | 56 | 78 | 4.0 | 16.0 | 0.00 | 0.01 | 0.00 | 88 | 1006.9 |
| 20260903105255 | 56 | 131 | 7.0 | 17.0 | 0.00 | 0.01 | 0.00 | 88 | 1006.9 |
| 20260903104755 | 56 | 182 | 8.0 | 17.0 | 0.00 | 0.01 | 0.00 | 88 | 1006.8 |
| 20260903104254 | 56 | 117 | 8.0 | 16.0 | 0.00 | 0.01 | 0.00 | 88 | 1006.8 |
| 20260903103755 | 56 | 136 | 8.0 | 16.0 | 0.00 | 0.01 | 0.00 | 88 | 1006.9 |
| 20260903102754 | 56 | 115 | 8.0 | 20.0 | 0.00 | 0.01 | 0.00 | 87 | 1007.0 |
| 20260903102255 | 56 | 135 | 8.0 | 20.0 | 0.00 | 0.01 | 0.00 | 87 | 1006.9 |
| 20260903101754 | 56 | 193 | 8.0 | 20.0 | 0.00 | 0.01 | 0.00 | 87 | 1006.8 |
| 20260903101254 | 56 | 145 | 14.0 | 20.0 | 0.00 | 0.01 | 0.00 | 87 | 1006.9 |
| 20260903100254 | 56 | 94 | 9.0 | 17.0 | 0.00 | 0.01 | 0.00 | 87 | 1006.8 |
| 20260903095754 | 56 | 190 | 6.0 | 16.0 | 0.00 | 0.01 | 0.00 | 87 | 1006.9 |
| 20260903095253 | 56 | 100 | 9.0 | 16.0 | 0.00 | 0.01 | 0.00 | 87 | 1007.0 |
| 20260903094754 | 56 | 155 | 6.0 | 16.0 | 0.00 | 0.01 | 0.00 | 87 | 1006.8 |
| 20260903094253 | 56 | 134 | 7.0 | 16.0 | 0.00 | 0.01 | 0.00 | 87 | 1006.8 |
| 20260903093754 | 56 | 155 | 9.0 | 16.0 | 0.00 | 0.01 | 0.00 | 87 | 1006.7 |
| 20260903093253 | 56 | 107 | 6.0 | 16.0 | 0.00 | 0.01 | 0.00 | 88 | 1006.7 |
| 20260903092753 | 56 | 98 | 5.0 | 12.0 | 0.00 | 0.01 | 0.00 | 87 | 1006.8 |
| 20260903091253 | 56 | 165 | 5.0 | 17.0 | 0.00 | 0.01 | 0.00 | 87 | 1006.6 |
| 20260903090753 | 56 | 143 | 10.0 | 14.0 | 0.00 | 0.01 | 0.00 | 87 | 1006.6 |
| 20260903090253 | 56 | 143 | 4.0 | 14.0 | 0.00 | 0.01 | 0.00 | 87 | 1006.5 |
| 20260903085753 | 56 | 167 | 6.0 | 19.0 | 0.00 | 0.01 | 0.00 | 87 | 1006.6 |
| 20260903085253 | 56 | 131 | 9.0 | 19.0 | 0.00 | 0.01 | 0.00 | 87 | 1006.5 |
| 20260903084752 | 56 | 161 | 4.0 | 14.0 | 0.00 | 0.01 | 0.00 | 87 | 1006.6 |
| 20260903083752 | 56 | 124 | 10.0 | 12.0 | 0.00 | 0.01 | 0.00 | 88 | 1006.7 |
| 20260903083252 | 56 | 212 | 3.0 | 12.0 | 0.00 | 0.01 | 0.00 | 88 | 1006.7 |
| 20260903082752 | 56 | 117 | 4.0 | 12.0 | 0.00 | 0.01 | 0.00 | 88 | 1006.7 |
| 20260903081752 | 56 | 130 | 4.0 | 13.0 | 0.00 | 0.01 | 0.00 | 88 | 1006.6 |